Year,Month,Day,Hour,Minute,Value (Times are PST for temperature in C)
2009,04,15,00,00,2.10
2009,04,15,00,01,2.10
2009,04,15,00,02,2.10
2009,04,15,00,03,2.10
2009,04,15,00,04,2.00
2009,04,15,00,05,2.00
2009,04,15,00,06,2.00
2009,04,15,00,07,2.00
2009,04,15,00,08,2.00
2009,04,15,00,09,1.90
2009,04,15,00,10,1.90
2009,04,15,00,11,1.90
2009,04,15,00,12,1.90
2009,04,15,00,13,1.90
2009,04,15,00,14,1.90
2009,04,15,00,15,1.90
2009,04,15,00,16,1.90
2009,04,15,00,17,1.90
2009,04,15,00,18,1.90
2009,04,15,00,19,1.90
2009,04,15,00,20,1.90
2009,04,15,00,21,1.90
2009,04,15,00,22,1.90
2009,04,15,00,23,1.90
2009,04,15,00,24,1.90
2009,04,15,00,25,1.90
2009,04,15,00,26,1.90
2009,04,15,00,27,1.90
2009,04,15,00,28,1.90
2009,04,15,00,29,1.90
2009,04,15,00,30,1.90
2009,04,15,00,31,1.90
2009,04,15,00,32,1.90
2009,04,15,00,33,1.90
2009,04,15,00,34,1.90
2009,04,15,00,35,1.90
2009,04,15,00,36,1.90
2009,04,15,00,37,1.80
2009,04,15,00,38,1.80
2009,04,15,00,39,1.80
2009,04,15,00,40,1.80
2009,04,15,00,41,1.80
2009,04,15,00,42,1.80
2009,04,15,00,43,1.80
2009,04,15,00,44,1.80
2009,04,15,00,45,1.70
2009,04,15,00,46,1.70
2009,04,15,00,47,1.70
2009,04,15,00,48,1.70
2009,04,15,00,49,1.70
2009,04,15,00,50,1.70
2009,04,15,00,51,1.60
2009,04,15,00,52,1.60
2009,04,15,00,53,1.60
2009,04,15,00,54,1.60
2009,04,15,00,55,1.60
2009,04,15,00,56,1.50
2009,04,15,00,57,1.50
2009,04,15,00,58,1.50
2009,04,15,00,59,1.50
2009,04,15,01,00,1.50
2009,04,15,01,01,1.50
2009,04,15,01,02,1.50
2009,04,15,01,03,1.50
2009,04,15,01,04,1.50
2009,04,15,01,05,1.50
2009,04,15,01,06,1.50
2009,04,15,01,07,1.50
2009,04,15,01,08,1.40
2009,04,15,01,09,1.40
2009,04,15,01,10,1.40
2009,04,15,01,11,1.40
2009,04,15,01,12,1.40
2009,04,15,01,13,1.40
2009,04,15,01,14,1.40
2009,04,15,01,15,1.40
2009,04,15,01,16,1.40
2009,04,15,01,17,1.40
2009,04,15,01,18,1.40
2009,04,15,01,19,1.40
2009,04,15,01,20,1.40
2009,04,15,01,21,1.30
2009,04,15,01,22,1.30
2009,04,15,01,23,1.30
2009,04,15,01,24,1.30
2009,04,15,01,25,1.30
2009,04,15,01,26,1.30
2009,04,15,01,27,1.30
2009,04,15,01,28,1.30
2009,04,15,01,29,1.30
2009,04,15,01,30,1.30
2009,04,15,01,31,1.30
2009,04,15,01,32,1.30
2009,04,15,01,33,1.30
2009,04,15,01,34,1.30
2009,04,15,01,35,1.30
2009,04,15,01,36,1.30
2009,04,15,01,37,1.30
2009,04,15,01,38,1.30
2009,04,15,01,39,1.30
2009,04,15,01,40,1.30
2009,04,15,01,41,1.30
2009,04,15,01,42,1.30
2009,04,15,01,43,1.30
2009,04,15,01,44,1.30
2009,04,15,01,45,1.30
2009,04,15,01,46,1.30
2009,04,15,01,47,1.30
2009,04,15,01,48,1.20
2009,04,15,01,49,1.20
2009,04,15,01,50,1.20
2009,04,15,01,51,1.20
2009,04,15,01,52,1.20
2009,04,15,01,53,1.10
2009,04,15,01,54,1.10
2009,04,15,01,55,1.10
2009,04,15,01,56,1.10
2009,04,15,01,57,1.10
2009,04,15,01,58,1.10
2009,04,15,01,59,1.00
2009,04,15,02,00,1.00
2009,04,15,02,01,1.00
2009,04,15,02,02,1.00
2009,04,15,02,03,1.00
2009,04,15,02,04,1.00
2009,04,15,02,05,1.00
2009,04,15,02,06,1.00
2009,04,15,02,07,1.00
2009,04,15,02,08,1.00
2009,04,15,02,09,1.00
2009,04,15,02,10,1.00
2009,04,15,02,11,1.00
2009,04,15,02,12,1.00
2009,04,15,02,13,1.00
2009,04,15,02,14,1.00
2009,04,15,02,15,0.90
2009,04,15,02,16,0.90
2009,04,15,02,17,0.90
2009,04,15,02,18,0.90
2009,04,15,02,19,0.90
2009,04,15,02,20,0.80
2009,04,15,02,21,0.80
2009,04,15,02,22,0.80
2009,04,15,02,23,0.80
2009,04,15,02,24,0.80
2009,04,15,02,25,0.80
2009,04,15,02,26,0.80
2009,04,15,02,27,0.80
2009,04,15,02,28,0.80
2009,04,15,02,29,0.80
2009,04,15,02,30,0.80
2009,04,15,02,31,0.80
2009,04,15,02,32,0.80
2009,04,15,02,33,0.80
2009,04,15,02,34,0.80
2009,04,15,02,35,0.80
2009,04,15,02,36,0.80
2009,04,15,02,37,0.80
2009,04,15,02,38,0.80
2009,04,15,02,39,0.80
2009,04,15,02,40,0.80
2009,04,15,02,41,0.80
2009,04,15,02,42,0.80
2009,04,15,02,43,0.80
2009,04,15,02,44,0.80
2009,04,15,02,45,0.80
2009,04,15,02,46,0.80
2009,04,15,02,47,0.80
2009,04,15,02,48,0.80
2009,04,15,02,49,0.80
2009,04,15,02,50,0.80
2009,04,15,02,51,0.70
2009,04,15,02,52,0.70
2009,04,15,02,53,0.70
2009,04,15,02,54,0.70
2009,04,15,02,55,0.70
2009,04,15,02,56,0.70
2009,04,15,02,57,0.60
2009,04,15,02,58,0.60
2009,04,15,02,59,0.60
2009,04,15,03,00,0.60
2009,04,15,03,01,0.60
2009,04,15,03,02,0.60
2009,04,15,03,03,0.60
2009,04,15,03,04,0.60
2009,04,15,03,05,0.60
2009,04,15,03,06,0.60
2009,04,15,03,07,0.60
2009,04,15,03,08,0.60
2009,04,15,03,09,0.60
2009,04,15,03,10,0.60
2009,04,15,03,11,0.60
2009,04,15,03,12,0.50
2009,04,15,03,13,0.50
2009,04,15,03,14,0.50
2009,04,15,03,15,0.50
2009,04,15,03,16,0.50
2009,04,15,03,17,0.50
2009,04,15,03,18,0.50
2009,04,15,03,19,0.50
2009,04,15,03,20,0.50
2009,04,15,03,21,0.50
2009,04,15,03,22,0.50
2009,04,15,03,23,0.50
2009,04,15,03,24,0.50
2009,04,15,03,25,0.60
2009,04,15,03,26,0.60
2009,04,15,03,27,0.60
2009,04,15,03,28,0.60
2009,04,15,03,29,0.60
2009,04,15,03,30,0.50
2009,04,15,03,31,0.50
2009,04,15,03,32,0.50
2009,04,15,03,33,0.50
2009,04,15,03,34,0.50
2009,04,15,03,35,0.50
2009,04,15,03,36,0.50
2009,04,15,03,37,0.50
2009,04,15,03,38,0.50
2009,04,15,03,39,0.50
2009,04,15,03,40,0.50
2009,04,15,03,41,0.50
2009,04,15,03,42,0.50
2009,04,15,03,43,0.50
2009,04,15,03,44,0.50
2009,04,15,03,45,0.50
2009,04,15,03,46,0.50
2009,04,15,03,47,0.50
2009,04,15,03,48,0.50
2009,04,15,03,49,0.50
2009,04,15,03,50,0.50
2009,04,15,03,51,0.50
2009,04,15,03,52,0.50
2009,04,15,03,53,0.50
2009,04,15,03,54,0.50
2009,04,15,03,55,0.50
2009,04,15,03,56,0.40
2009,04,15,03,57,0.40
2009,04,15,03,58,0.40
2009,04,15,03,59,0.40
2009,04,15,04,00,0.40
2009,04,15,04,01,0.40
2009,04,15,04,02,0.40
2009,04,15,04,03,0.40
2009,04,15,04,04,0.40
2009,04,15,04,05,0.40
2009,04,15,04,06,0.40
2009,04,15,04,07,0.40
2009,04,15,04,08,0.40
2009,04,15,04,09,0.40
2009,04,15,04,10,0.40
2009,04,15,04,11,0.40
2009,04,15,04,12,0.40
2009,04,15,04,13,0.40
2009,04,15,04,14,0.30
2009,04,15,04,15,0.30
2009,04,15,04,16,0.30
2009,04,15,04,17,0.30
2009,04,15,04,18,0.30
2009,04,15,04,19,0.30
2009,04,15,04,20,0.30
2009,04,15,04,21,0.30
2009,04,15,04,22,0.30
2009,04,15,04,23,0.30
2009,04,15,04,24,0.30
2009,04,15,04,25,0.30
2009,04,15,04,26,0.30
2009,04,15,04,27,0.30
2009,04,15,04,28,0.30
2009,04,15,04,29,0.30
2009,04,15,04,30,0.30
2009,04,15,04,31,0.20
2009,04,15,04,32,0.20
2009,04,15,04,33,0.20
2009,04,15,04,34,0.20
2009,04,15,04,35,0.20
2009,04,15,04,36,0.20
2009,04,15,04,37,0.10
2009,04,15,04,38,0.10
2009,04,15,04,39,0.10
2009,04,15,04,40,0.10
2009,04,15,04,41,0.10
2009,04,15,04,42,0.10
2009,04,15,04,43,0.10
2009,04,15,04,44,0.10
2009,04,15,04,45,0.10
2009,04,15,04,46,0.10
2009,04,15,04,47,0.20
2009,04,15,04,48,0.20
2009,04,15,04,49,0.20
2009,04,15,04,50,0.20
2009,04,15,04,51,0.10
2009,04,15,04,52,0.10
2009,04,15,04,53,0.10
2009,04,15,04,54,0.10
2009,04,15,04,55,0.10
2009,04,15,04,56,0.10
2009,04,15,04,57,0.10
2009,04,15,04,58,0.10
2009,04,15,04,59,0.10
2009,04,15,05,00,0.10
2009,04,15,05,01,0.10
2009,04,15,05,02,0.10
2009,04,15,05,03,0.10
2009,04,15,05,04,0.10
2009,04,15,05,05,0.10
2009,04,15,05,06,0.20
2009,04,15,05,07,0.20
2009,04,15,05,08,0.20
2009,04,15,05,09,0.20
2009,04,15,05,10,0.20
2009,04,15,05,11,0.20
2009,04,15,05,12,0.20
2009,04,15,05,13,0.20
2009,04,15,05,14,0.20
2009,04,15,05,15,0.20
2009,04,15,05,16,0.20
2009,04,15,05,17,0.30
2009,04,15,05,18,0.30
2009,04,15,05,19,0.30
2009,04,15,05,20,0.30
2009,04,15,05,21,0.30
2009,04,15,05,22,0.30
2009,04,15,05,23,0.30
2009,04,15,05,24,0.30
2009,04,15,05,25,0.30
2009,04,15,05,26,0.30
2009,04,15,05,27,0.30
2009,04,15,05,28,0.20
2009,04,15,05,29,0.20
2009,04,15,05,30,0.20
2009,04,15,05,31,0.20
2009,04,15,05,32,0.20
2009,04,15,05,33,0.20
2009,04,15,05,34,0.20
2009,04,15,05,35,0.20
2009,04,15,05,36,0.20
2009,04,15,05,37,0.20
2009,04,15,05,38,0.20
2009,04,15,05,39,0.20
2009,04,15,05,40,0.30
2009,04,15,05,41,0.30
2009,04,15,05,42,0.30
2009,04,15,05,43,0.30
2009,04,15,05,44,0.30
2009,04,15,05,45,0.30
2009,04,15,05,46,0.30
2009,04,15,05,47,0.30
2009,04,15,05,48,0.30
2009,04,15,05,49,0.30
2009,04,15,05,50,0.30
2009,04,15,05,51,0.30
2009,04,15,05,52,0.30
2009,04,15,05,53,0.30
2009,04,15,05,54,0.30
2009,04,15,05,55,0.30
2009,04,15,05,56,0.30
2009,04,15,05,57,0.30
2009,04,15,05,58,0.30
2009,04,15,05,59,0.40
2009,04,15,06,00,0.40
2009,04,15,06,01,0.40
2009,04,15,06,02,0.40
2009,04,15,06,03,0.40
2009,04,15,06,04,0.40
2009,04,15,06,05,0.40
2009,04,15,06,06,0.40
2009,04,15,06,07,0.40
2009,04,15,06,08,0.40
2009,04,15,06,09,0.40
2009,04,15,06,10,0.40
2009,04,15,06,11,0.40
2009,04,15,06,12,0.40
2009,04,15,06,13,0.40
2009,04,15,06,14,0.40
2009,04,15,06,15,0.40
2009,04,15,06,16,0.40
2009,04,15,06,17,0.40
2009,04,15,06,18,0.40
2009,04,15,06,19,0.40
2009,04,15,06,20,0.40
2009,04,15,06,21,0.40
2009,04,15,06,22,0.40
2009,04,15,06,23,0.40
2009,04,15,06,24,0.40
2009,04,15,06,25,0.40
2009,04,15,06,26,0.40
2009,04,15,06,27,0.40
2009,04,15,06,28,0.40
2009,04,15,06,29,0.40
2009,04,15,06,30,0.40
2009,04,15,06,31,0.40
2009,04,15,06,32,0.40
2009,04,15,06,33,0.40
2009,04,15,06,34,0.40
2009,04,15,06,35,0.40
2009,04,15,06,36,0.40
2009,04,15,06,37,0.40
2009,04,15,06,38,0.40
2009,04,15,06,39,0.40
2009,04,15,06,40,0.40
2009,04,15,06,41,0.40
2009,04,15,06,42,0.40
2009,04,15,06,43,0.40
2009,04,15,06,44,0.40
2009,04,15,06,45,0.40
2009,04,15,06,46,0.40
2009,04,15,06,47,0.40
2009,04,15,06,48,0.40
2009,04,15,06,49,0.50
2009,04,15,06,50,0.50
2009,04,15,06,51,0.50
2009,04,15,06,52,0.50
2009,04,15,06,53,0.50
2009,04,15,06,54,0.60
2009,04,15,06,55,0.60
2009,04,15,06,56,0.60
2009,04,15,06,57,0.60
2009,04,15,06,58,0.70
2009,04,15,06,59,0.70
2009,04,15,07,00,0.70
2009,04,15,07,01,0.80
2009,04,15,07,02,0.80
2009,04,15,07,03,0.80
2009,04,15,07,04,0.80
2009,04,15,07,05,0.90
2009,04,15,07,06,0.90
2009,04,15,07,07,1.00
2009,04,15,07,08,1.00
2009,04,15,07,09,1.10
2009,04,15,07,10,1.10
2009,04,15,07,11,1.20
2009,04,15,07,12,1.20
2009,04,15,07,13,1.30
2009,04,15,07,14,1.30
2009,04,15,07,15,1.30
2009,04,15,07,16,1.30
2009,04,15,07,17,1.40
2009,04,15,07,18,1.50
2009,04,15,07,19,1.50
2009,04,15,07,20,1.60
2009,04,15,07,21,1.60
2009,04,15,07,22,1.70
2009,04,15,07,23,1.80
2009,04,15,07,24,1.80
2009,04,15,07,25,1.90
2009,04,15,07,26,1.90
2009,04,15,07,27,1.90
2009,04,15,07,28,1.90
2009,04,15,07,29,1.80
2009,04,15,07,30,1.80
2009,04,15,07,31,1.80
2009,04,15,07,32,1.80
2009,04,15,07,33,1.80
2009,04,15,07,34,1.80
2009,04,15,07,35,1.70
2009,04,15,07,36,1.70
2009,04,15,07,37,1.70
2009,04,15,07,38,1.70
2009,04,15,07,39,1.70
2009,04,15,07,40,1.70
2009,04,15,07,41,1.70
2009,04,15,07,42,1.70
2009,04,15,07,43,1.70
2009,04,15,07,44,1.70
2009,04,15,07,45,1.70
2009,04,15,07,46,1.70
2009,04,15,07,47,1.80
2009,04,15,07,48,1.80
2009,04,15,07,49,1.90
2009,04,15,07,50,2.00
2009,04,15,07,51,2.00
2009,04,15,07,52,2.10
2009,04,15,07,53,2.20
2009,04,15,07,54,2.20
2009,04,15,07,55,2.30
2009,04,15,07,56,2.40
2009,04,15,07,57,2.50
2009,04,15,07,58,2.60
2009,04,15,07,59,2.70
2009,04,15,08,00,2.80
2009,04,15,08,01,2.90
2009,04,15,08,02,2.90
2009,04,15,08,03,2.90
2009,04,15,08,04,3.00
2009,04,15,08,05,3.10
2009,04,15,08,06,3.20
2009,04,15,08,07,3.20
2009,04,15,08,08,3.30
2009,04,15,08,09,3.30
2009,04,15,08,10,3.30
2009,04,15,08,11,3.30
2009,04,15,08,12,3.30
2009,04,15,08,13,3.30
2009,04,15,08,14,3.30
2009,04,15,08,15,3.30
2009,04,15,08,16,3.30
2009,04,15,08,17,3.30
2009,04,15,08,18,3.20
2009,04,15,08,19,3.20
2009,04,15,08,20,3.20
2009,04,15,08,21,3.30
2009,04,15,08,22,3.30
2009,04,15,08,23,3.30
2009,04,15,08,24,3.30
2009,04,15,08,25,3.30
2009,04,15,08,26,3.40
2009,04,15,08,27,3.50
2009,04,15,08,28,3.60
2009,04,15,08,29,3.70
2009,04,15,08,30,3.80
2009,04,15,08,31,4.00
2009,04,15,08,32,4.10
2009,04,15,08,33,4.20
2009,04,15,08,34,4.40
2009,04,15,08,35,4.50
2009,04,15,08,36,4.60
2009,04,15,08,37,4.70
2009,04,15,08,38,4.80
2009,04,15,08,39,5.00
2009,04,15,08,40,5.10
2009,04,15,08,41,5.20
2009,04,15,08,42,5.30
2009,04,15,08,43,5.30
2009,04,15,08,44,5.30
2009,04,15,08,45,5.40
2009,04,15,08,46,5.50
2009,04,15,08,47,5.60
2009,04,15,08,48,5.70
2009,04,15,08,49,5.80
2009,04,15,08,50,6.00
2009,04,15,08,51,6.10
2009,04,15,08,52,6.20
2009,04,15,08,53,6.30
2009,04,15,08,54,6.40
2009,04,15,08,55,6.40
2009,04,15,08,56,6.60
2009,04,15,08,57,6.60
2009,04,15,08,58,6.70
2009,04,15,08,59,6.80
2009,04,15,09,00,6.80
2009,04,15,09,01,6.80
2009,04,15,09,02,6.80
2009,04,15,09,03,6.80
2009,04,15,09,04,6.90
2009,04,15,09,05,6.90
2009,04,15,09,06,7.00
2009,04,15,09,07,7.10
2009,04,15,09,08,7.20
2009,04,15,09,09,7.30
2009,04,15,09,10,7.30
2009,04,15,09,11,7.40
2009,04,15,09,12,7.50
2009,04,15,09,13,7.60
2009,04,15,09,14,7.70
2009,04,15,09,15,7.90
2009,04,15,09,16,8.00
2009,04,15,09,17,8.00
2009,04,15,09,18,8.20
2009,04,15,09,19,8.20
2009,04,15,09,20,8.20
2009,04,15,09,21,8.20
2009,04,15,09,22,8.20
2009,04,15,09,23,8.20
2009,04,15,09,24,8.20
2009,04,15,09,25,8.20
2009,04,15,09,26,8.10
2009,04,15,09,27,8.00
2009,04,15,09,28,8.00
2009,04,15,09,29,8.10
2009,04,15,09,30,8.10
2009,04,15,09,31,8.20
2009,04,15,09,32,8.20
2009,04,15,09,33,8.30
2009,04,15,09,34,8.40
2009,04,15,09,35,8.50
2009,04,15,09,36,8.50
2009,04,15,09,37,8.60
2009,04,15,09,38,8.70
2009,04,15,09,39,8.70
2009,04,15,09,40,8.80
2009,04,15,09,41,8.90
2009,04,15,09,42,8.90
2009,04,15,09,43,8.90
2009,04,15,09,44,8.90
2009,04,15,09,45,9.00
2009,04,15,09,46,9.00
2009,04,15,09,47,9.00
2009,04,15,09,48,8.90
2009,04,15,09,49,8.90
2009,04,15,09,50,8.90
2009,04,15,09,51,8.90
2009,04,15,09,52,8.90
2009,04,15,09,53,8.90
2009,04,15,09,54,8.90
2009,04,15,09,55,8.90
2009,04,15,09,56,9.00
2009,04,15,09,57,9.00
2009,04,15,09,58,9.00
2009,04,15,09,59,8.90
2009,04,15,10,00,8.90
2009,04,15,10,01,8.90
2009,04,15,10,02,8.90
2009,04,15,10,03,9.00
2009,04,15,10,04,9.00
2009,04,15,10,05,9.00
2009,04,15,10,06,9.10
2009,04,15,10,07,9.10
2009,04,15,10,08,9.20
2009,04,15,10,09,9.20
2009,04,15,10,10,9.20
2009,04,15,10,11,9.20
2009,04,15,10,12,9.20
2009,04,15,10,13,9.20
2009,04,15,10,14,9.20
2009,04,15,10,15,9.20
2009,04,15,10,16,9.20
2009,04,15,10,17,9.20
2009,04,15,10,18,9.30
2009,04,15,10,19,9.30
2009,04,15,10,20,9.30
2009,04,15,10,21,9.30
2009,04,15,10,22,9.30
2009,04,15,10,23,9.30
2009,04,15,10,24,9.30
2009,04,15,10,25,9.30
2009,04,15,10,26,9.30
2009,04,15,10,27,9.20
2009,04,15,10,28,9.20
2009,04,15,10,29,9.20
2009,04,15,10,30,9.20
2009,04,15,10,31,9.20
2009,04,15,10,32,9.20
2009,04,15,10,33,9.10
2009,04,15,10,34,9.10
2009,04,15,10,35,9.00
2009,04,15,10,36,9.00
2009,04,15,10,37,9.00
2009,04,15,10,38,9.10
2009,04,15,10,39,9.10
2009,04,15,10,40,9.10
2009,04,15,10,41,9.10
2009,04,15,10,42,9.10
2009,04,15,10,43,9.10
2009,04,15,10,44,9.20
2009,04,15,10,45,9.10
2009,04,15,10,46,9.00
2009,04,15,10,47,9.00
2009,04,15,10,48,9.00
2009,04,15,10,49,9.00
2009,04,15,10,50,9.10
2009,04,15,10,51,9.20
2009,04,15,10,52,9.30
2009,04,15,10,53,9.40
2009,04,15,10,54,9.40
2009,04,15,10,55,9.40
2009,04,15,10,56,9.30
2009,04,15,10,57,9.40
2009,04,15,10,58,9.50
2009,04,15,10,59,9.50
2009,04,15,11,00,9.50
2009,04,15,11,01,9.50
2009,04,15,11,02,9.60
2009,04,15,11,03,9.60
2009,04,15,11,04,9.60
2009,04,15,11,05,9.60
2009,04,15,11,06,9.50
2009,04,15,11,07,9.50
2009,04,15,11,08,9.60
2009,04,15,11,09,9.60
2009,04,15,11,10,9.50
2009,04,15,11,11,9.40
2009,04,15,11,12,9.30
2009,04,15,11,13,9.30
2009,04,15,11,14,9.40
2009,04,15,11,15,9.40
2009,04,15,11,16,9.50
2009,04,15,11,17,9.50
2009,04,15,11,18,9.50
2009,04,15,11,19,9.50
2009,04,15,11,20,9.50
2009,04,15,11,21,9.50
2009,04,15,11,22,9.50
2009,04,15,11,23,9.50
2009,04,15,11,24,9.60
2009,04,15,11,25,9.70
2009,04,15,11,26,9.50
2009,04,15,11,27,9.50
2009,04,15,11,28,9.50
2009,04,15,11,29,9.60
2009,04,15,11,30,9.70
2009,04,15,11,31,9.70
2009,04,15,11,32,9.70
2009,04,15,11,33,9.70
2009,04,15,11,34,9.70
2009,04,15,11,35,9.70
2009,04,15,11,36,9.70
2009,04,15,11,37,9.70
2009,04,15,11,38,9.70
2009,04,15,11,39,9.70
2009,04,15,11,40,9.70
2009,04,15,11,41,9.60
2009,04,15,11,42,9.50
2009,04,15,11,43,9.50
2009,04,15,11,44,9.40
2009,04,15,11,45,9.40
2009,04,15,11,46,9.40
2009,04,15,11,47,9.50
2009,04,15,11,48,9.50
2009,04,15,11,49,9.60
2009,04,15,11,50,9.70
2009,04,15,11,51,9.70
2009,04,15,11,52,9.80
2009,04,15,11,53,9.70
2009,04,15,11,54,9.70
2009,04,15,11,55,9.70
2009,04,15,11,56,9.70
2009,04,15,11,57,9.70
2009,04,15,11,58,9.70
2009,04,15,11,59,9.70
2009,04,15,12,00,9.70
2009,04,15,12,01,9.80
2009,04,15,12,02,9.90
2009,04,15,12,03,9.80
2009,04,15,12,04,9.70
2009,04,15,12,05,9.70
2009,04,15,12,06,9.70
2009,04,15,12,07,9.70
2009,04,15,12,08,9.70
2009,04,15,12,09,9.80
2009,04,15,12,10,9.80
2009,04,15,12,11,9.80
2009,04,15,12,12,9.70
2009,04,15,12,13,9.80
2009,04,15,12,14,9.80
2009,04,15,12,15,9.90
2009,04,15,12,16,9.90
2009,04,15,12,17,9.90
2009,04,15,12,18,10.00
2009,04,15,12,19,10.20
2009,04,15,12,20,10.20
2009,04,15,12,21,10.20
2009,04,15,12,22,10.30
2009,04,15,12,23,10.40
2009,04,15,12,24,10.40
2009,04,15,12,25,10.30
2009,04,15,12,26,10.20
2009,04,15,12,27,10.10
2009,04,15,12,28,10.20
2009,04,15,12,29,10.20
2009,04,15,12,30,10.30
2009,04,15,12,31,10.40
2009,04,15,12,32,10.50
2009,04,15,12,33,10.60
2009,04,15,12,34,10.70
2009,04,15,12,35,10.80
2009,04,15,12,36,10.70
2009,04,15,12,37,10.70
2009,04,15,12,38,10.50
2009,04,15,12,39,10.40
2009,04,15,12,40,10.40
2009,04,15,12,41,10.40
2009,04,15,12,42,10.40
2009,04,15,12,43,10.40
2009,04,15,12,44,10.40
2009,04,15,12,45,10.60
2009,04,15,12,46,10.60
2009,04,15,12,47,10.70
2009,04,15,12,48,10.60
2009,04,15,12,49,10.60
2009,04,15,12,50,10.60
2009,04,15,12,51,10.60
2009,04,15,12,52,10.60
2009,04,15,12,53,10.60
2009,04,15,12,54,10.70
2009,04,15,12,55,10.70
2009,04,15,12,56,10.80
2009,04,15,12,57,10.80
2009,04,15,12,58,10.80
2009,04,15,12,59,10.70
2009,04,15,13,00,10.70
2009,04,15,13,01,10.80
2009,04,15,13,02,10.90
2009,04,15,13,03,10.90
2009,04,15,13,04,10.90
2009,04,15,13,05,11.00
2009,04,15,13,06,11.10
2009,04,15,13,07,11.20
2009,04,15,13,08,11.40
2009,04,15,13,09,11.40
2009,04,15,13,10,11.40
2009,04,15,13,11,11.30
2009,04,15,13,12,11.20
2009,04,15,13,13,11.20
2009,04,15,13,14,11.20
2009,04,15,13,15,11.20
2009,04,15,13,16,11.20
2009,04,15,13,17,11.20
2009,04,15,13,18,11.20
2009,04,15,13,19,11.10
2009,04,15,13,20,11.10
2009,04,15,13,21,11.00
2009,04,15,13,22,10.90
2009,04,15,13,23,10.90
2009,04,15,13,24,10.90
2009,04,15,13,25,11.00
2009,04,15,13,26,11.10
2009,04,15,13,27,11.20
2009,04,15,13,28,11.20
2009,04,15,13,29,11.20
2009,04,15,13,30,11.30
2009,04,15,13,31,11.20
2009,04,15,13,32,11.20
2009,04,15,13,33,11.20
2009,04,15,13,34,11.20
2009,04,15,13,35,11.20
2009,04,15,13,36,11.30
2009,04,15,13,37,11.30
2009,04,15,13,38,11.20
2009,04,15,13,39,11.20
2009,04,15,13,40,11.30
2009,04,15,13,41,11.30
2009,04,15,13,42,11.30
2009,04,15,13,43,11.20
2009,04,15,13,44,11.10
2009,04,15,13,45,11.20
2009,04,15,13,46,11.20
2009,04,15,13,47,11.10
2009,04,15,13,48,11.10
2009,04,15,13,49,11.10
2009,04,15,13,50,11.20
2009,04,15,13,51,11.20
2009,04,15,13,52,11.20
2009,04,15,13,53,11.30
2009,04,15,13,54,11.40
2009,04,15,13,55,11.40
2009,04,15,13,56,11.50
2009,04,15,13,57,11.60
2009,04,15,13,58,11.60
2009,04,15,13,59,11.60
2009,04,15,14,00,11.60
2009,04,15,14,01,11.60
2009,04,15,14,02,11.70
2009,04,15,14,03,11.80
2009,04,15,14,04,11.80
2009,04,15,14,05,11.80
2009,04,15,14,06,11.80
2009,04,15,14,07,11.80
2009,04,15,14,08,11.80
2009,04,15,14,09,11.80
2009,04,15,14,10,11.80
2009,04,15,14,11,11.80
2009,04,15,14,12,11.70
2009,04,15,14,13,11.70
2009,04,15,14,14,11.60
2009,04,15,14,15,11.70
2009,04,15,14,16,11.70
2009,04,15,14,17,11.60
2009,04,15,14,18,11.70
2009,04,15,14,19,11.70
2009,04,15,14,20,11.70
2009,04,15,14,21,11.70
2009,04,15,14,22,11.70
2009,04,15,14,23,11.60
2009,04,15,14,24,11.60
2009,04,15,14,25,11.60
2009,04,15,14,26,11.60
2009,04,15,14,27,11.60
2009,04,15,14,28,11.60
2009,04,15,14,29,11.70
2009,04,15,14,30,11.70
2009,04,15,14,31,11.80
2009,04,15,14,32,11.80
2009,04,15,14,33,11.80
2009,04,15,14,34,11.90
2009,04,15,14,35,11.90
2009,04,15,14,36,11.90
2009,04,15,14,37,12.00
2009,04,15,14,38,12.00
2009,04,15,14,39,12.10
2009,04,15,14,40,12.20
2009,04,15,14,41,12.20
2009,04,15,14,42,12.10
2009,04,15,14,43,12.10
2009,04,15,14,44,12.20
2009,04,15,14,45,12.20
2009,04,15,14,46,12.20
2009,04,15,14,47,12.20
2009,04,15,14,48,12.20
2009,04,15,14,49,12.20
2009,04,15,14,50,12.20
2009,04,15,14,51,12.20
2009,04,15,14,52,12.20
2009,04,15,14,53,12.20
2009,04,15,14,54,12.10
2009,04,15,14,55,12.00
2009,04,15,14,56,12.10
2009,04,15,14,57,12.10
2009,04,15,14,58,12.20
2009,04,15,14,59,12.20
2009,04,15,15,00,12.20
2009,04,15,15,01,12.20
2009,04,15,15,02,12.20
2009,04,15,15,03,12.30
2009,04,15,15,04,12.30
2009,04,15,15,05,12.30
2009,04,15,15,06,12.30
2009,04,15,15,07,12.40
2009,04,15,15,08,12.30
2009,04,15,15,09,12.30
2009,04,15,15,10,12.30
2009,04,15,15,11,12.30
2009,04,15,15,12,12.30
2009,04,15,15,13,12.30
2009,04,15,15,14,12.30
2009,04,15,15,15,12.30
2009,04,15,15,16,12.30
2009,04,15,15,17,12.30
2009,04,15,15,18,12.30
2009,04,15,15,19,12.30
2009,04,15,15,20,12.40
2009,04,15,15,21,12.50
2009,04,15,15,22,12.50
2009,04,15,15,23,12.60
2009,04,15,15,24,12.60
2009,04,15,15,25,12.50
2009,04,15,15,26,12.50
2009,04,15,15,27,12.60
2009,04,15,15,28,12.60
2009,04,15,15,29,12.60
2009,04,15,15,30,12.60
2009,04,15,15,31,12.50
2009,04,15,15,32,12.30
2009,04,15,15,33,12.30
2009,04,15,15,34,12.30
2009,04,15,15,35,12.30
2009,04,15,15,36,12.30
2009,04,15,15,37,12.30
2009,04,15,15,38,12.20
2009,04,15,15,39,12.30
2009,04,15,15,40,12.40
2009,04,15,15,41,12.50
2009,04,15,15,42,12.50
2009,04,15,15,43,12.60
2009,04,15,15,44,12.70
2009,04,15,15,45,12.70
2009,04,15,15,46,12.80
2009,04,15,15,47,12.90
2009,04,15,15,48,12.90
2009,04,15,15,49,12.90
2009,04,15,15,50,12.80
2009,04,15,15,51,12.80
2009,04,15,15,52,12.80
2009,04,15,15,53,12.80
2009,04,15,15,54,12.80
2009,04,15,15,55,12.80
2009,04,15,15,56,12.80
2009,04,15,15,57,12.80
2009,04,15,15,58,12.80
2009,04,15,15,59,12.80
2009,04,15,16,00,12.80
2009,04,15,16,01,12.70
2009,04,15,16,02,12.60
2009,04,15,16,03,12.50
2009,04,15,16,04,12.50
2009,04,15,16,05,12.50
2009,04,15,16,06,12.50
2009,04,15,16,07,12.60
2009,04,15,16,08,12.60
2009,04,15,16,09,12.70
2009,04,15,16,10,12.80
2009,04,15,16,11,12.90
2009,04,15,16,12,13.00
2009,04,15,16,13,13.00
2009,04,15,16,14,13.00
2009,04,15,16,15,12.90
2009,04,15,16,16,12.90
2009,04,15,16,17,12.80
2009,04,15,16,18,12.90
2009,04,15,16,19,13.00
2009,04,15,16,20,13.00
2009,04,15,16,21,13.10
2009,04,15,16,22,13.20
2009,04,15,16,23,13.30
2009,04,15,16,24,13.20
2009,04,15,16,25,13.10
2009,04,15,16,26,13.10
2009,04,15,16,27,13.00
2009,04,15,16,28,12.90
2009,04,15,16,29,12.80
2009,04,15,16,30,12.80
2009,04,15,16,31,12.80
2009,04,15,16,32,12.80
2009,04,15,16,33,12.80
2009,04,15,16,34,12.80
2009,04,15,16,35,12.80
2009,04,15,16,36,12.80
2009,04,15,16,37,12.80
2009,04,15,16,38,12.80
2009,04,15,16,39,12.70
2009,04,15,16,40,12.60
2009,04,15,16,41,12.50
2009,04,15,16,42,12.40
2009,04,15,16,43,12.30
2009,04,15,16,44,12.30
2009,04,15,16,45,12.30
2009,04,15,16,46,12.40
2009,04,15,16,47,12.40
2009,04,15,16,48,12.40
2009,04,15,16,49,12.50
2009,04,15,16,50,12.50
2009,04,15,16,51,12.50
2009,04,15,16,52,12.50
2009,04,15,16,53,12.40
2009,04,15,16,54,12.30
2009,04,15,16,55,12.30
2009,04,15,16,56,12.30
2009,04,15,16,57,12.30
2009,04,15,16,58,12.30
2009,04,15,16,59,12.30
2009,04,15,17,00,12.30
2009,04,15,17,01,12.30
2009,04,15,17,02,12.30
2009,04,15,17,03,12.30
2009,04,15,17,04,12.20
2009,04,15,17,05,12.20
2009,04,15,17,06,12.10
2009,04,15,17,07,12.10
2009,04,15,17,08,12.20
2009,04,15,17,09,12.30
2009,04,15,17,10,12.20
2009,04,15,17,11,12.10
2009,04,15,17,12,11.90
2009,04,15,17,13,11.90
2009,04,15,17,14,11.90
2009,04,15,17,15,11.90
2009,04,15,17,16,11.80
2009,04,15,17,17,11.60
2009,04,15,17,18,11.60
2009,04,15,17,19,11.40
2009,04,15,17,20,11.40
2009,04,15,17,21,11.30
2009,04,15,17,22,11.10
2009,04,15,17,23,11.10
2009,04,15,17,24,11.10
2009,04,15,17,25,11.10
2009,04,15,17,26,11.00
2009,04,15,17,27,10.90
2009,04,15,17,28,10.80
2009,04,15,17,29,10.80
2009,04,15,17,30,10.70
2009,04,15,17,31,10.60
2009,04,15,17,32,10.60
2009,04,15,17,33,10.60
2009,04,15,17,34,10.60
2009,04,15,17,35,10.70
2009,04,15,17,36,10.80
2009,04,15,17,37,10.80
2009,04,15,17,38,10.90
2009,04,15,17,39,11.00
2009,04,15,17,40,11.10
2009,04,15,17,41,11.10
2009,04,15,17,42,11.10
2009,04,15,17,43,11.10
2009,04,15,17,44,11.10
2009,04,15,17,45,11.10
2009,04,15,17,46,11.10
2009,04,15,17,47,11.10
2009,04,15,17,48,11.10
2009,04,15,17,49,11.10
2009,04,15,17,50,11.10
2009,04,15,17,51,11.00